[[{"header":{"parameterUnit":"m.s-1","parameterCategory":1,"la1":30.2991,"la2":30.254,"lo1":-89.0895,"lo2":-89.0444,"dy":0.0017,"dx":0.0017,"nx":28,"ny":28,"refTime":"2025-05-22T03:00:00:Z","depth":0,"parameterNumber":2,"parameterNumberName":"U-component_of_WINDS"},"data":[0,0,0,0,0,0,0,0,0,0,0,0,0,0,0,0,0,0,0,0,0,0,0,0,0,0,0,0,0,0,0,0,0,0,0,0,0,0,0,0,0,0,0,0,0,0,0,0,0,0,0,0,0,0,0,0,0,0,-0.1482,-0.1481,0,-0.138,-0.1379,-0.1378,-0.1282,-0.128,-0.1279,-0.1278,-0.1173,-0.1171,-0.1169,0,0,0,0,0,0,0,0,0,0,0,0,0,-0.1592,-0.159,-0.1482,-0.1481,-0.148,-0.138,-0.1379,-0.1377,-0.1282,-0.128,-0.1279,-0.1278,-0.1173,-0.1171,-0.1169,0,0,0,0,0,0,0,0,0,0,0,0,0,-0.1523,-0.159,-0.1482,-0.142,-0.1413,-0.1381,-0.1379,-0.1377,-0.1282,-0.128,-0.1279,-0.1277,-0.1174,-0.1171,-0.1169,-0.1189,0,0,-0.1161,-0.116,0,0,0,0,0,0,0,0,-0.1527,-0.1519,-0.143,-0.1424,-0.1417,-0.1342,-0.1379,-0.1314,-0.1283,-0.1332,-0.1278,-0.1276,-0.123,-0.1223,-0.1208,-0.1184,-0.118,-0.1161,-0.1159,-0.1158,-0.1158,0,0,0,0,0,0,0,-0.1532,-0.1522,-0.1442,-0.1429,-0.1421,-0.1396,-0.1384,-0.1366,-0.1292,-0.1327,-0.132,-0.131,-0.1226,-0.1211,-0.1205,-0.1178,-0.1161,-0.1159,-0.1157,-0.1156,-0.1166,-0.1167,0,0,0,0,0,0,-0.1546,-0.1527,-0.1445,-0.1439,-0.1468,-0.1396,-0.1383,-0.1368,-0.1292,-0.1279,-0.1311,-0.1305,-0.1216,-0.1208,-0.1201,-0.1219,-0.1158,-0.1156,-0.1155,-0.1164,-0.1166,-0.1168,0,0,0,0,0,0,-0.1549,-0.154,-0.1449,-0.1481,-0.1467,-0.1396,-0.138,-0.1367,-0.1351,-0.128,-0.1266,-0.1309,-0.1214,-0.1204,-0.1193,-0.1214,-0.1155,-0.1153,-0.1162,-0.1165,-0.1167,-0.1258,0,0,0,0,0,0,-0.1552,-0.1541,-0.1549,-0.1482,-0.1466,-0.1444,-0.1381,-0.1366,-0.1347,-0.1338,-0.1274,-0.1262,-0.1212,-0.1197,-0.119,-0.121,-0.1151,-0.116,-0.1163,-0.1166,-0.1253,-0.1263,-0.1272,0,0,0,0,0,-0.1557,-0.1579,-0.155,-0.154,-0.1474,-0.1445,-0.1436,-0.1379,-0.1349,-0.1356,-0.131,-0.1264,-0.1213,-0.1197,-0.1188,-0.1208,-0.1158,-0.1162,-0.1166,-0.1248,-0.1261,-0.1272,0,0,0,0,0,0,-0.165,-0.1569,-0.1536,-0.1537,-0.1499,-0.1429,-0.1436,-0.1394,-0.1364,-0.1357,-0.1286,-0.1272,-0.1269,-0.1237,-0.122,-0.1223,-0.1179,-0.1182,-0.1245,-0.1256,-0.1266,-0.1274,-0.1148,0,0,0,0,0,-0.1671,-0.1655,-0.1584,-0.1592,-0.1574,-0.1509,-0.1494,-0.1453,-0.141,-0.1394,-0.1347,-0.1307,-0.1282,-0.1267,-0.124,-0.1247,-0.1231,-0.1256,-0.1266,-0.1274,-0.1277,-0.1278,-0.1288,-0.1181,-0.1181,-0.1181,0,0,-0.1714,-0.1667,-0.1661,-0.1609,-0.1575,-0.1559,-0.1496,-0.1482,-0.147,-0.1391,-0.1378,-0.1342,-0.1293,-0.1291,-0.1288,-0.1264,-0.1303,-0.1279,-0.1286,-0.1285,-0.1283,-0.1294,-0.1303,-0.1184,-0.1183,-0.1183,0,0,-0.1784,-0.1747,-0.1749,-0.1716,-0.1664,-0.162,-0.1621,-0.1557,-0.1531,-0.1516,-0.1457,-0.1441,-0.1399,-0.1366,-0.1344,-0.14,-0.1357,-0.1393,-0.1446,-0.1447,-0.1456,-0.1463,-0.1483,-0.1491,-0.1396,-0.1397,-0.1397,0,-0.1843,-0.1818,-0.1755,-0.1745,-0.1724,-0.1652,-0.1653,-0.1623,-0.1566,-0.1553,-0.1527,-0.1472,-0.1434,-0.1423,-0.1437,-0.1421,-0.142,-0.1401,-0.146,-0.1466,-0.1472,-0.149,-0.1498,-0.1402,-0.1401,-0.1401,-0.14,0,-0.1894,-0.1877,-0.1885,-0.1831,-0.181,-0.1806,-0.1742,-0.1729,-0.1689,-0.1647,-0.1633,-0.1584,-0.1546,-0.154,-0.1501,-0.1523,-0.151,-0.1473,-0.1428,-0.1488,-0.1504,-0.1511,-0.1409,-0.1407,-0.1405,-0.1404,0,0,-0.2022,-0.1933,-0.1937,-0.1911,-0.1849,-0.1834,-0.1826,-0.1789,-0.1779,-0.1741,-0.1732,-0.1698,-0.1662,-0.1638,-0.1594,-0.1595,-0.1643,-0.1557,-0.1555,-0.1575,-0.1665,-0.1694,-0.1703,-0.1613,-0.1614,-0.1615,-0.1669,0,-0.2082,-0.2064,-0.2006,-0.2006,-0.1989,-0.192,-0.1912,-0.1873,-0.1834,-0.1813,-0.1769,-0.1746,-0.1701,-0.1686,-0.1684,-0.1638,-0.166,-0.1633,-0.1604,-0.1604,-0.162,-0.1712,-0.1743,-0.1797,-0.1675,-0.1676,-0.1677,0,-0.215,-0.2117,-0.2115,-0.2052,-0.2043,-0.2038,-0.1999,-0.198,-0.1933,-0.1904,-0.1876,-0.1827,-0.1814,-0.1771,-0.1752,-0.1734,-0.1719,-0.1694,-0.1695,-0.1691,-0.1645,-0.1711,-0.1812,-0.1821,-0.1686,-0.1685,-0.1685,0,-0.2245,-0.2199,-0.2192,-0.2172,-0.2099,-0.2097,-0.2066,-0.2017,-0.1998,-0.1964,-0.195,-0.1915,-0.1895,-0.1868,-0.1811,-0.1785,-0.1798,-0.175,-0.1773,-0.1775,-0.178,-0.1781,-0.1881,-0.1769,-0.1769,-0.1769,-0.1768,0,-0.2318,-0.232,-0.2233,-0.2229,-0.2228,-0.2161,-0.2162,-0.2125,-0.2082,-0.2069,-0.2005,-0.1994,-0.1918,-0.1898,-0.1852,-0.1843,-0.1834,-0.1811,-0.1799,-0.1817,-0.182,-0.1807,-0.1802,-0.1771,-0.177,-0.177,-0.1769,0,-0.2425,-0.2367,-0.2354,-0.2285,-0.2268,-0.2271,-0.2211,-0.2204,-0.216,-0.2144,-0.2136,-0.2068,-0.204,-0.198,-0.1936,-0.1905,-0.1908,-0.1885,-0.1924,-0.1917,-0.1944,-0.1943,-0.204,-0.2049,-0.1931,-0.1932,-0.1933,0,-0.2476,-0.2476,-0.2407,-0.2394,-0.2366,-0.2345,-0.2325,-0.2259,-0.224,-0.2187,-0.2186,-0.2153,-0.2124,-0.2084,-0.203,-0.1995,-0.1972,-0.2009,-0.1967,-0.1985,-0.1974,-0.1975,-0.1975,-0.2019,-0.2021,-0.2022,-0.2023,0,-0.2575,-0.2546,-0.252,-0.2484,-0.2462,-0.243,-0.2395,-0.2387,-0.2312,-0.2295,-0.2266,-0.2244,-0.2199,-0.2168,-0.2125,-0.2092,-0.2046,-0.2036,-0.204,-0.2059,-0.2082,-0.2071,-0.195,-0.2035,-0.2033,-0.2033,-0.2032,-0.2032,-0.2655,-0.2652,-0.2603,-0.2576,-0.2542,-0.251,-0.25,-0.2455,-0.243,-0.2389,-0.235,-0.2326,-0.2277,-0.2216,-0.2186,-0.2165,-0.2141,-0.2147,-0.2148,-0.2151,-0.2159,-0.2084,-0.2157,-0.2156,-0.2156,-0.2155,-0.2155,0,-0.2751,-0.2716,-0.2692,-0.2644,-0.2623,-0.258,-0.2538,-0.2523,-0.2503,-0.2462,-0.2434,-0.2401,-0.237,-0.2313,-0.2277,-0.2271,-0.2248,-0.2264,-0.2264,-0.2257,-0.2182,-0.2183,-0.2283,-0.2283,-0.2282,-0.2282,-0.2282,-0.2282,-0.2798,-0.279,-0.2755,-0.2729,-0.2693,-0.2668,-0.2648,-0.2618,-0.2586,-0.2552,-0.2526,-0.2489,-0.2441,-0.2401,-0.237,-0.2354,-0.2344,-0.2366,-0.2344,-0.2275,-0.2263,-0.2251,-0.2252,-0.2364,-0.2365,-0.2421,-0.2421,-0.2422]},{"header":{"parameterUnit":"m.s-1","parameterCategory":1,"la1":30.2991,"la2":30.254,"lo1":-89.0895,"lo2":-89.0444,"dy":0.0017,"dx":0.0017,"nx":28,"ny":28,"refTime":"2025-05-22T03:00:00:Z","depth":0,"parameterNumber":3,"parameterNumberName":"V-component_of_WINDS"},"data":[0,0,0,0,0,0,0,0,0,0,0,0,0,0,0,0,0,0,0,0,0,0,0,0,0,0,0,0,0,0,0,0,0,0,0,0,0,0,0,0,0,0,0,0,0,0,0,0,0,0,0,0,0,0,0,0,0,0,-0.2202,-0.2202,0,-0.2201,-0.2201,-0.2201,-0.2231,-0.2232,-0.2232,-0.2233,-0.2229,-0.2228,-0.2227,0,0,0,0,0,0,0,0,0,0,0,0,0,-0.2228,-0.2227,-0.2202,-0.2202,-0.2202,-0.2201,-0.2201,-0.2201,-0.2231,-0.2232,-0.2232,-0.2233,-0.2229,-0.2228,-0.2227,0,0,0,0,0,0,0,0,0,0,0,0,0,-0.2221,-0.2227,-0.2202,-0.2217,-0.2218,-0.2201,-0.2201,-0.2201,-0.223,-0.2232,-0.2233,-0.2234,-0.2229,-0.2228,-0.2227,-0.2195,0,0,-0.2223,-0.2222,0,0,0,0,0,0,0,0,-0.2221,-0.222,-0.2215,-0.2216,-0.2217,-0.2218,-0.2209,-0.2199,-0.223,-0.2226,-0.2233,-0.2234,-0.2224,-0.2223,-0.222,-0.2195,-0.2195,-0.2223,-0.2222,-0.2221,-0.2221,0,0,0,0,0,0,0,-0.2222,-0.222,-0.2202,-0.2215,-0.2216,-0.2223,-0.2223,-0.2207,-0.2218,-0.2226,-0.2228,-0.2228,-0.2225,-0.2221,-0.222,-0.2195,-0.2223,-0.2222,-0.2221,-0.222,-0.2145,-0.2144,0,0,0,0,0,0,-0.2221,-0.222,-0.2202,-0.2202,-0.2222,-0.2222,-0.2222,-0.2216,-0.2218,-0.222,-0.2227,-0.2229,-0.2223,-0.2222,-0.222,-0.2184,-0.2221,-0.222,-0.222,-0.2146,-0.2145,-0.2143,0,0,0,0,0,0,-0.2221,-0.2219,-0.2202,-0.2212,-0.221,-0.222,-0.2213,-0.2216,-0.2212,-0.2219,-0.2221,-0.2222,-0.2224,-0.2222,-0.2202,-0.2184,-0.222,-0.2219,-0.2148,-0.2146,-0.2144,-0.211,0,0,0,0,0,0,-0.2222,-0.2219,-0.2207,-0.2211,-0.221,-0.2184,-0.2212,-0.2215,-0.221,-0.2213,-0.2214,-0.2216,-0.2225,-0.2203,-0.22,-0.2183,-0.2218,-0.2149,-0.2147,-0.2145,-0.2113,-0.2107,-0.2103,0,0,0,0,0,-0.2222,-0.2196,-0.2206,-0.2204,-0.2195,-0.2183,-0.2182,-0.2193,-0.2209,-0.2197,-0.2202,-0.2216,-0.2187,-0.2201,-0.2198,-0.218,-0.215,-0.2147,-0.2145,-0.2115,-0.2108,-0.2103,0,0,0,0,0,0,-0.2188,-0.2197,-0.2208,-0.2183,-0.2182,-0.2188,-0.2173,-0.2186,-0.218,-0.2183,-0.2197,-0.2197,-0.2174,-0.2175,-0.2191,-0.215,-0.2171,-0.2168,-0.215,-0.2143,-0.2138,-0.2138,-0.2216,0,0,0,0,0,-0.2177,-0.2167,-0.2176,-0.2153,-0.2152,-0.2163,-0.2157,-0.2167,-0.2166,-0.2166,-0.2169,-0.2167,-0.2158,-0.2151,-0.2142,-0.2114,-0.2115,-0.21,-0.2095,-0.2091,-0.2087,-0.2073,-0.2066,-0.2134,-0.2134,-0.2134,0,0,-0.2155,-0.2159,-0.2152,-0.2146,-0.2146,-0.2135,-0.2162,-0.2148,-0.214,-0.2163,-0.2144,-0.2147,-0.2146,-0.2121,-0.2111,-0.2122,-0.2069,-0.2087,-0.2084,-0.2082,-0.2069,-0.2063,-0.2057,-0.2132,-0.2133,-0.2133,0,0,-0.2109,-0.2111,-0.2093,-0.2093,-0.2095,-0.2102,-0.2098,-0.2102,-0.2105,-0.2087,-0.2105,-0.2095,-0.2079,-0.2077,-0.2074,-0.2031,-0.2044,-0.2028,-0.2001,-0.1986,-0.1981,-0.1976,-0.1961,-0.1955,-0.2025,-0.2024,-0.2024,0,-0.2081,-0.2065,-0.2081,-0.2067,-0.2064,-0.2087,-0.2068,-0.2068,-0.2066,-0.2063,-0.2076,-0.2057,-0.2057,-0.2033,-0.2023,-0.202,-0.2015,-0.2027,-0.1981,-0.1976,-0.1972,-0.1957,-0.1951,-0.2022,-0.2023,-0.2023,-0.2023,0,-0.2031,-0.202,-0.2005,-0.2004,-0.2,-0.1983,-0.1996,-0.199,-0.2001,-0.2007,-0.1989,-0.1991,-0.1984,-0.198,-0.1989,-0.1957,-0.1964,-0.1979,-0.2,-0.1963,-0.195,-0.1944,-0.202,-0.202,-0.2021,-0.2021,0,0,-0.196,-0.1971,-0.1965,-0.1965,-0.1969,-0.1961,-0.1946,-0.1941,-0.1935,-0.1934,-0.1921,-0.1908,-0.1922,-0.1919,-0.1929,-0.1917,-0.1883,-0.1933,-0.1933,-0.1923,-0.1848,-0.1836,-0.1829,-0.1892,-0.1891,-0.189,-0.1848,0,-0.1915,-0.1891,-0.1906,-0.1879,-0.1869,-0.1892,-0.1879,-0.188,-0.1887,-0.1879,-0.1886,-0.1876,-0.1896,-0.1894,-0.1883,-0.1889,-0.1868,-0.1893,-0.188,-0.1879,-0.1878,-0.1822,-0.1809,-0.1769,-0.1843,-0.1842,-0.1841,0,-0.1859,-0.1857,-0.1829,-0.1837,-0.1834,-0.1822,-0.1819,-0.1812,-0.1814,-0.1819,-0.1817,-0.1831,-0.1817,-0.184,-0.182,-0.1837,-0.1833,-0.1836,-0.1834,-0.1832,-0.1857,-0.1818,-0.1757,-0.175,-0.1833,-0.1834,-0.1834,0,-0.181,-0.18,-0.1783,-0.1782,-0.1791,-0.1782,-0.1785,-0.1789,-0.1785,-0.1783,-0.1781,-0.1777,-0.1774,-0.177,-0.1782,-0.1798,-0.1761,-0.1785,-0.1765,-0.1764,-0.1754,-0.1755,-0.1691,-0.1754,-0.1754,-0.1754,-0.1754,0,-0.1757,-0.1739,-0.1761,-0.175,-0.1731,-0.1749,-0.1729,-0.1735,-0.1738,-0.1729,-0.1748,-0.1739,-0.1756,-0.1749,-0.1758,-0.1741,-0.174,-0.1743,-0.1746,-0.1741,-0.174,-0.1737,-0.174,-0.1753,-0.1753,-0.1753,-0.1753,0,-0.1698,-0.1712,-0.1694,-0.1705,-0.1707,-0.1693,-0.1702,-0.1692,-0.1701,-0.1689,-0.1687,-0.17,-0.1692,-0.1705,-0.1698,-0.1704,-0.168,-0.1688,-0.168,-0.1681,-0.1661,-0.1662,-0.1591,-0.1583,-0.1652,-0.1652,-0.1651,0,-0.1662,-0.165,-0.166,-0.1656,-0.1658,-0.165,-0.1648,-0.1665,-0.1661,-0.1664,-0.1654,-0.1649,-0.1645,-0.1631,-0.164,-0.1635,-0.1642,-0.1618,-0.1641,-0.1637,-0.1641,-0.1641,-0.164,-0.1612,-0.1611,-0.1611,-0.161,0,-0.1598,-0.1607,-0.1602,-0.1601,-0.1597,-0.1597,-0.1597,-0.1593,-0.1612,-0.1606,-0.1599,-0.1597,-0.1591,-0.1585,-0.1583,-0.1586,-0.1601,-0.1603,-0.1598,-0.1592,-0.1588,-0.1589,-0.1665,-0.1604,-0.1605,-0.1605,-0.1605,-0.1606,-0.155,-0.154,-0.1546,-0.1541,-0.1544,-0.1544,-0.1536,-0.1545,-0.154,-0.1538,-0.1549,-0.1539,-0.1543,-0.1542,-0.1544,-0.1537,-0.1547,-0.154,-0.1538,-0.1536,-0.1532,-0.159,-0.1537,-0.1537,-0.1537,-0.1537,-0.1537,0,-0.1486,-0.1492,-0.1487,-0.1489,-0.1485,-0.1502,-0.1504,-0.1499,-0.1491,-0.1494,-0.1491,-0.1484,-0.1479,-0.1488,-0.1485,-0.1477,-0.1484,-0.1475,-0.1475,-0.1476,-0.1523,-0.1528,-0.147,-0.147,-0.147,-0.147,-0.147,-0.147,-0.1453,-0.1437,-0.1446,-0.1433,-0.1438,-0.143,-0.143,-0.1431,-0.1434,-0.1425,-0.1422,-0.1429,-0.1434,-0.1432,-0.1428,-0.1431,-0.1428,-0.1417,-0.1422,-0.1466,-0.1472,-0.1479,-0.1483,-0.1417,-0.1417,-0.1376,-0.1375,-0.1375]}]]